{"data":{"norad_id":44909,"epoch":"2026-05-25T02:21:03.502080Z","epoch_age_seconds":80644,"freshness":"FRESH","line1":"1 44909U 19096E   26145.09795720  .00000018  00000+0  26341-4 0  9996","line2":"2 44909  82.5226 355.0510 0217126 198.1070 161.2213 12.79748349299399","mean_motion":12.79748349,"eccentricity":0.0217126,"inclination_deg":82.5226,"raan_deg":355.051,"arg_perigee_deg":198.107,"mean_anomaly_deg":161.2213,"bstar":2.6341e-5,"rev_number":29939,"period_min":112.52212211293,"perigee_km":1174.8473129367,"apogee_km":1510.1167382468,"semimajor_km":7720.6190255918,"source":"CELESTRAK","updated_at":"2026-05-25T13:38:23.289960Z"}}